Weather History for Kemmerer, WY

Change the Weather History Date:

Sunday, August 18, 2013

  Actual Average Record
Temperature  
Mean Temperature 68 °F -  
Max Temperature 86 °F 79 °F 90 °F (1986)
Min Temperature 51 °F 44 °F 29 °F (1954)
Cooling Degree Days 4    
Growing Degree Days 18 (Base 50)    
Moisture  
Dew Point 35 °F    
Average Humidity 32    
Maximum Humidity 58    
Minimum Humidity 13    
Precipitation  
Precipitation 0.00 in - - ()
Sea Level Pressure  
Sea Level Pressure 30.31 in    
Wind  
Wind Speed 7 mph (NW)    
Max Wind Speed 17 mph    
Max Gust Speed 24 mph    
Visibility 10 miles    
Events      
Averages and records for this station are not official NWS values.
T = Trace of Precipitation, MM = Missing Value Source: NWS Daily Summary

Daily Weather History Graph

Daily Weather History Graph

Search for Another Location

Airport:

Trip Planner

Search our weather history database for the weather conditions in past years. The results will help you decide how hot, cold, wet, or windy it might be!

Date:

Astronomy

Aug. 18, 2013 Rise Set
Actual Time 6:33 AM MDT 8:17 PM MDT
Civil Twilight 6:04 AM MDT 8:46 PM MDT
Nautical Twilight 5:28 AM MDT 9:22 PM MDT
Astronomical Twilight 4:49 AM MDT 10:01 PM MDT
Moon 6:27 PM MDT (8/18) 3:46 AM MDT (8/18)
Length of Visible Light 14h 42m
Length of Day
13h 43m
Waxing Gibbous, 92% of the Moon is Illuminated
Aug 18
Waxing Gibbous
Aug 20
Full
Aug 28
Last Quarter
Sep 5
New
Sep 12
First Quarter

Hourly Weather History & Observations

Time (MDT) Temp. Dew Point Humidity Pressure Visibility Wind Dir Wind Speed Gust Speed Precip Events Conditions
12:15 AM 61.9 °F 37.9 °F 41% 30.30 in 10.0 mi NW 9.2 mph - N/A   Clear
12:35 AM 61.2 °F 37.9 °F 42% 30.30 in 10.0 mi Calm Calm - N/A   Clear
12:55 AM 60.3 °F 37.8 °F 43% 30.30 in 10.0 mi WNW 5.8 mph - N/A   Clear
1:15 AM 59.7 °F 37.9 °F 44% 30.30 in 10.0 mi Calm Calm - N/A   Clear
1:35 AM 57.7 °F 39.4 °F 50% 30.30 in 10.0 mi Calm Calm - N/A   Clear
1:55 AM 58.3 °F 38.8 °F 48% 30.30 in 10.0 mi NNW 4.6 mph - N/A   Clear
2:15 AM 56.8 °F 38.5 °F 50% 30.30 in 10.0 mi Calm Calm - N/A   Clear
2:35 AM 56.8 °F 38.3 °F 50% 30.30 in 10.0 mi NNW 4.6 mph - N/A   Clear
2:55 AM 55.6 °F 37.8 °F 51% 30.30 in 10.0 mi Calm Calm - N/A   Clear
3:15 AM 55.4 °F 37.6 °F 51% 30.30 in 10.0 mi WNW 4.6 mph - N/A   Clear
3:35 AM 54.7 °F 37.8 °F 53% 30.30 in 10.0 mi NNW 4.6 mph - N/A   Clear
3:55 AM 53.8 °F 38.1 °F 55% 30.30 in 10.0 mi NNW 8.1 mph - N/A   Clear
4:15 AM 54.9 °F 37.2 °F 51% 30.30 in 10.0 mi NNW 10.4 mph - N/A   Clear
4:35 AM 55.0 °F 37.0 °F 51% 30.30 in 10.0 mi NNW 9.2 mph - N/A   Clear
4:55 AM 54.5 °F 37.0 °F 52% 30.30 in 10.0 mi NNW 10.4 mph - N/A   Clear
5:15 AM 55.2 °F 36.9 °F 50% 30.30 in 10.0 mi NW 9.2 mph - N/A   Clear
5:35 AM 55.2 °F 36.5 °F 49% 30.31 in 10.0 mi NNW 8.1 mph - N/A   Clear
5:55 AM 52.9 °F 36.7 °F 54% 30.31 in 10.0 mi NW 5.8 mph - N/A   Clear
6:15 AM 52.5 °F 36.7 °F 55% 30.32 in 10.0 mi North 3.5 mph - N/A   Clear
6:35 AM 51.4 °F 36.9 °F 58% 30.32 in 10.0 mi NNW 8.1 mph - N/A   Clear
6:55 AM 52.7 °F 36.7 °F 55% 30.32 in 10.0 mi NNW 9.2 mph - N/A   Clear
7:15 AM 54.0 °F 36.9 °F 52% 30.34 in 10.0 mi NNW 9.2 mph - N/A   Clear
7:35 AM 55.6 °F 37.0 °F 50% 30.34 in 10.0 mi NNW 8.1 mph - N/A   Clear
7:55 AM 58.5 °F 37.4 °F 45% 30.34 in 10.0 mi NNW 8.1 mph - N/A   Clear
8:15 AM 61.5 °F 37.4 °F 41% 30.35 in 10.0 mi NNW 4.6 mph - N/A   Clear
8:35 AM 61.7 °F 39.2 °F 43% 30.35 in 10.0 mi Calm Calm - N/A   Clear
8:55 AM 63.5 °F 39.4 °F 41% 30.35 in 10.0 mi Calm Calm - N/A   Clear
9:15 AM 67.1 °F 39.0 °F 36% 30.35 in 10.0 mi Calm Calm - N/A   Clear
9:35 AM 70.7 °F 38.3 °F 31% 30.35 in 10.0 mi West 11.5 mph - N/A   Clear
9:55 AM 72.3 °F 38.1 °F 29% 30.35 in 10.0 mi WSW 9.2 mph - N/A   Clear
10:15 AM 73.4 °F 38.3 °F 28% 30.35 in 10.0 mi West 8.1 mph - N/A   Clear
10:35 AM 74.5 °F 37.6 °F 26% 30.35 in 10.0 mi NW 5.8 mph - N/A   Clear
10:55 AM 76.3 °F 37.0 °F 24% 30.36 in 10.0 mi WNW 6.9 mph - N/A   Clear
11:15 AM 77.7 °F 37.6 °F 24% 30.36 in 10.0 mi West 6.9 mph - N/A   Clear
11:35 AM 78.4 °F 37.4 °F 23% 30.35 in 10.0 mi WSW 10.4 mph - N/A   Clear
11:55 AM 79.5 °F 37.6 °F 22% 30.35 in 10.0 mi WSW 10.4 mph 17.3 mph N/A   Clear
12:15 PM 80.8 °F 36.9 °F 21% 30.34 in 10.0 mi WSW 5.8 mph 16.1 mph N/A   Clear
12:35 PM 81.5 °F 36.5 °F 20% 30.34 in 10.0 mi WNW 11.5 mph 16.1 mph N/A   Clear
12:55 PM 82.9 °F 35.2 °F 18% 30.34 in 10.0 mi West 9.2 mph 17.3 mph N/A   Clear
1:15 PM 83.5 °F 33.1 °F 16% 30.34 in 10.0 mi WNW 15.0 mph 20.7 mph N/A   Clear
1:35 PM 83.5 °F 31.1 °F 15% 30.33 in 10.0 mi West 9.2 mph 20.7 mph N/A   Clear
1:55 PM 84.0 °F 32.0 °F 15% 30.32 in 10.0 mi West 12.7 mph 20.7 mph N/A   Clear
2:15 PM 85.1 °F 30.9 °F 14% 30.32 in 10.0 mi West 9.2 mph 19.6 mph N/A   Clear
2:35 PM 85.5 °F 30.9 °F 14% 30.31 in 10.0 mi WNW 12.7 mph 20.7 mph N/A   Clear
2:55 PM 85.1 °F 30.6 °F 14% 30.31 in 10.0 mi WSW 8.1 mph 16.1 mph N/A   Scattered Clouds
3:15 PM 86.0 °F 30.0 °F 13% 30.30 in 10.0 mi North 8.1 mph 19.6 mph N/A   Mostly Cloudy
3:35 PM 82.9 °F 30.4 °F 15% 30.30 in 10.0 mi NW 12.7 mph 21.9 mph N/A   Mostly Cloudy
3:55 PM 82.2 °F 29.5 °F 15% 30.30 in 10.0 mi WNW 12.7 mph - N/A   Scattered Clouds
4:15 PM 81.1 °F 30.9 °F 16% 30.30 in 10.0 mi WNW 6.9 mph - N/A   Scattered Clouds
4:35 PM 81.9 °F 30.0 °F 15% 30.30 in 10.0 mi West 10.4 mph - N/A   Scattered Clouds
4:55 PM 83.7 °F 29.3 °F 14% 30.29 in 10.0 mi NW 6.9 mph - N/A   Scattered Clouds
5:15 PM 85.6 °F 28.6 °F 13% 30.28 in 10.0 mi West 13.8 mph 20.7 mph N/A   Scattered Clouds
5:35 PM 85.3 °F 28.0 °F 13% 30.27 in 10.0 mi WNW 17.3 mph 20.7 mph N/A   Clear
5:55 PM 84.6 °F 28.2 °F 13% 30.27 in 10.0 mi WNW 13.8 mph 24.2 mph N/A   Clear
6:15 PM 84.0 °F 27.3 °F 13% 30.27 in 10.0 mi West 13.8 mph 19.6 mph N/A   Clear
6:35 PM 82.8 °F 28.4 °F 14% 30.27 in 10.0 mi NW 15.0 mph 19.6 mph N/A   Scattered Clouds
6:55 PM 82.6 °F 30.4 °F 15% 30.27 in 10.0 mi NW 16.1 mph - N/A   Scattered Clouds
7:15 PM 82.0 °F 30.4 °F 15% 30.27 in 10.0 mi NW 12.7 mph 19.6 mph N/A   Clear
7:35 PM 80.8 °F 32.0 °F 17% 30.27 in 10.0 mi NW 11.5 mph - N/A   Clear
7:55 PM 78.6 °F 33.1 °F 19% 30.27 in 10.0 mi WNW 9.2 mph - N/A   Clear
8:15 PM 75.4 °F 33.8 °F 22% 30.28 in 10.0 mi WNW 8.1 mph - N/A   Clear
8:35 PM 73.0 °F 34.7 °F 25% 30.29 in 10.0 mi NW 5.8 mph - N/A   Clear
8:55 PM 71.2 °F 35.1 °F 27% 30.30 in 10.0 mi WNW 8.1 mph - N/A   Clear
9:15 PM 70.5 °F 35.4 °F 28% 30.30 in 10.0 mi NNW 8.1 mph - N/A   Clear
9:35 PM 68.9 °F 35.8 °F 30% 30.31 in 10.0 mi North 5.8 mph - N/A   Clear
9:55 PM 68.5 °F 36.5 °F 31% 30.32 in 10.0 mi North 3.5 mph - N/A   Clear
10:15 PM 67.3 °F 36.5 °F 32% 30.32 in 10.0 mi NNW 6.9 mph - N/A   Clear
10:35 PM 66.2 °F 36.9 °F 34% 30.32 in 10.0 mi NW 6.9 mph - N/A   Clear
10:55 PM 66.7 °F 37.0 °F 33% 30.32 in 10.0 mi North 4.6 mph - N/A   Clear
11:15 PM 64.8 °F 37.8 °F 37% 30.32 in 10.0 mi NNW 6.9 mph - N/A   Clear
11:35 PM 63.9 °F 37.8 °F 38% 30.33 in 10.0 mi NW 6.9 mph - N/A   Clear
11:55 PM 64.4 °F 38.3 °F 38% 30.33 in 10.0 mi NW 5.8 mph - N/A   Clear